Wind from 160 at 22 knots

Air temperature 11.9° C
Dewpoint 5.1° C

Last reported at 2014-Apr-23 13:00 UTC.
Time now 2014-Apr-23 15:11 UTC

Location: N 61°18' E 001°42'.
View on Google Maps.

See reports from other nearby stations

Tides Stations Pressure Air Temp Water Temp Dewpoint Dewpoint depression Visibility Wind Speed Wind Dir Waves Ship positions

  
sailing weather and tide predictions

Current Weather: station 63114

date/time (UTC)wind fromknots sea level pressurealtimeterstation pressurevisibilityair tempwater tempwave heightnotes
2014-Apr-23 13:00 160 22 11.9
2014-Apr-23 12:00 140 22 12.7
2014-Apr-23 11:00 140 26 12.9
2014-Apr-23 10:00 130 25 12.0
2014-Apr-23 09:00 130 24 11.5
2014-Apr-23 08:00 120 20 11.1
2014-Apr-23 07:00 120 19 10.0
2014-Apr-23 06:00 130 14 8.8
2014-Apr-23 05:00 090 13 8.1
2014-Apr-23 04:00 080 17 7.7
2014-Apr-23 03:00 070 16 7.5
2014-Apr-23 02:00 060 18 7.2
2014-Apr-23 01:00 060 17 7.1
2014-Apr-23 00:00 050 19 7.0
2014-Apr-22 23:00 060 19 7.0
2014-Apr-22 22:00 060 18 7.0
2014-Apr-22 21:00 050 22 7.1
2014-Apr-22 20:00 050 24 7.2
2014-Apr-22 19:00 050 23 7.4
2014-Apr-22 18:00 050 23 7.5
2014-Apr-22 17:00 050 27 7.7
2014-Apr-22 16:00 050 27 7.6
2014-Apr-22 15:00 050 25 7.4
2014-Apr-22 14:00 050 26 7.4
2014-Apr-22 13:00 050 27 7.7
2014-Apr-22 12:00 050 29 7.9
2014-Apr-22 11:00 050 29 7.6
2014-Apr-22 10:00 050 27 7.3
2014-Apr-22 09:00 050 27 7.2
2014-Apr-22 08:00 050 27 7.2
2014-Apr-22 07:00 050 26 6.9
2014-Apr-22 06:00 040 27 6.5
2014-Apr-22 05:00 040 27 7.0
2014-Apr-22 04:00 040 26 7.3
2014-Apr-22 03:00 040 24 7.1
2014-Apr-22 02:00 040 23 6.8
2014-Apr-22 01:00 040 22 7.1
2014-Apr-22 00:00 040 23 7.0
2014-Apr-21 23:00 040 20 7.2
2014-Apr-21 22:00 040 20 7.1
2014-Apr-21 21:00 040 22 7.4
2014-Apr-21 20:00 040 19 7.5
2014-Apr-21 19:00 040 16 8.4
2014-Apr-21 18:00 040 14 9.1
2014-Apr-21 17:00 040 12 8.8
2014-Apr-21 16:00 030 13 9.1
2014-Apr-21 15:00 040 10 7.8